This is the latest recevied weather packets stored in our database for station/object KG7QQL. If no packets are shown the sender has not sent any weather packets the latest 10 day(s).
| Time | Temp. | Humidity | Pressure | Rain* | Wind** | Luminosity | Snow |
|---|---|---|---|---|---|---|---|
| 1777908580 | 16.67° C | 72% | - | 0 mm | - | - | - |
| 1777908277 | 17.78° C | 71% | - | 0 mm | - | - | - |
| 1777907973 | 17.78° C | 71% | - | 0 mm | - | - | - |
| 1777907668 | 16.11° C | 75% | - | 0 mm | - | - | - |
| 1777907364 | 15.56° C | 77% | - | 0 mm | - | - | - |
| 1777907061 | 15.56° C | 77% | - | 0 mm | - | - | - |
| 1777906758 | 15° C | 77% | - | 0 mm | - | - | - |
| 1777906455 | 15.56° C | 76% | - | 0 mm | - | - | - |
| 1777906152 | 15.56° C | 74% | - | 0 mm | - | - | - |
| 1777905848 | 15.56° C | 74% | - | 0 mm | - | - | - |
| 1777905545 | 14.44° C | 78% | - | 0 mm | - | - | - |
| 1777905242 | 13.89° C | 80% | - | 0 mm | - | - | - |
| 1777904939 | 13.89° C | 80% | - | 0 mm | - | - | - |
| 1777904636 | 13.33° C | 81% | - | 0 mm | - | - | - |
| 1777904334 | 13.33° C | 82% | - | 0 mm | - | - | - |
| 1777904030 | 12.78° C | 83% | - | 0 mm | - | - | - |
| 1777903727 | 12.78° C | 84% | - | 0 mm | - | - | - |
| 1777903423 | 12.78° C | 85% | - | 0 mm | - | - | - |
| 1777903120 | 12.22° C | 87% | - | 0 mm | - | - | - |
| 1777902816 | 11.67° C | 88% | - | 0 mm | - | - | - |
| 1777902514 | 11.67° C | 89% | - | 0 mm | - | - | - |
| 1777902210 | 11.11° C | 89% | - | 0 mm | - | - | - |
| 1777901909 | 11.11° C | 89% | - | 0 mm | - | - | - |
| 1777901606 | 11.11° C | 89% | - | 0 mm | - | - | - |
| 1777901303 | 11.11° C | 88% | - | 0 mm | - | - | - |
* Rain latest hour (hover to see other rain measurements)
** Current wind speed in m/s (hover to see current wind gust speed)